Regional Weather Roundup
Issued by NWS

Home | Current Version | Previous Version | Text Only | Print | Product List | Glossary On
Versions: 1 2 3 4 5 6 7 8 9 10 11 12 13 14 15 16 17 18 19 20 21 22 23 24 25 26 27 28 29 30 31 32 33 34 35 36 37 38 39 40 41 42 43 44 45 46 47 48 49 50
000
ASUS43 KMKX 050721
RWRWI

WISCONSIN REGIONAL WEATHER ROUNDUP
NATIONAL WEATHER SERVICE MILWAUKEE/SULLIVAN WI
200 AM CDT SAT SEP 05 2015

NOTE: "FAIR" INDICATES FEW OR NO CLOUDS BELOW 12,000 FEET WITH NO
SIGNIFICANT WEATHER AND/OR OBSTRUCTIONS TO VISIBILITY.

WIZ001-002-006>008-014>016-023>028-050800-
NORTHWEST WISCONSIN

CITY           SKY/WX    TMP DP  RH WIND       PRES   REMARKS
SUPERIOR ARPT  MOCLDY    59  57  94 CALM      29.97F
ASHLAND        PTCLDY    62  62 100 CALM      30.00F
HAYWARD        MOCLDY    72  66  81 VRB5      30.02S
SIREN          PTCLDY    73  70  89 S7        29.98S
CUMBERLAND     CLEAR     68  64  88 SE6       30.01S
RICE LAKE      CLEAR     70  66  87 SE8       30.03S
CHETEK         PTCLDY    70  67  92 SE3       30.02S
LADYSMITH      MOCLDY    70  66  88 SE5       30.05S
EAU CLAIRE     PTCLDY    72  67  84 SE6       30.00R
MENOMONIE      MOCLDY    73  71  93 E5        30.00S
NEW RICHMOND   MOCLDY    73  71  95 E3        29.98S
OSCEOLA        MOCLDY    74  74 100 E6        29.99S
$$

WIZ003>005-009-010-017-018-050800-
NORTH CENTRAL WISCONSIN

CITY           SKY/WX    TMP DP  RH WIND       PRES   REMARKS
MANITOWISH WTR MOCLDY    66  66 100 SE3       30.08R
ARBOR VITAE    PTCLDY    66  64  94 CALM      30.08S
WOODRUFF       PTCLDY    66  64  94 CALM      30.08S
RHINELANDER    CLOUDY    65  64  97 SE5       30.10S FOG
EAGLE RIVER    CLOUDY    64  64 100 S5        30.09F FOG
LAND O LAKES   CLOUDY    65  65  99 SE3       30.10F FOG
PHILLIPS       CLOUDY    67  66  96 SE6       30.06S
TOMAHAWK       CLOUDY    64  63  96 CALM      30.09S FOG
MEDFORD        PTCLDY    66  65  99 SE5       30.07S FOG
MERRILL        CLOUDY    66  66 100 SE5       30.08F FOG
$$

WIZ029-030-035-036-043>047-050800-
CENTRAL WISCONSIN

CITY           SKY/WX    TMP DP  RH WIND       PRES   REMARKS
WAUSAU         CLOUDY    67  65  93 SE6       30.06S
MOSINEE        CLOUDY    64  64 100 E5        30.08F FOG
MARSHFIELD     PTCLDY    67  63  87 E6        30.06S FOG
STEVENS POINT  CLOUDY    65  64  99 E5        30.07F FOG
WAUPACA        CLOUDY    68  67  98 CALM      30.06F FOG
WAUTOMA        PTCLDY    65  65 100 CALM      30.07S FOG
WISC RAPIDS    MOCLDY    68  64  87 SE3       30.07S
CAMP DOUGLAS   PTCLDY    66  66 100 E5        30.03S
$$

WIZ011>013-019>022-031-037>040-048>050-050800-
NORTHEAST WISCONSIN

CITY           SKY/WX    TMP DP  RH WIND       PRES   REMARKS
ANTIGO         CLOUDY    64  64 100 SE3       30.09F FOG
SHAWANO        NOT AVBL
OCONTO         PTCLDY    60  60 100 CALM      30.05F
STURGEON BAY   CLOUDY    66  63  88 NW3       30.08F VSB 1/4
GREEN BAY      FOG       61  60  97 W3        30.07S VSB 1/4
MANITOWOC      FOG       64  64 100 MISG      30.07S VSB 1/4
APPLETON       PTCLDY    63  63 100 CALM      30.06R FOG
CLINTONVILLE   CLOUDY    63  63 100 CALM      30.07S FOG
OSHKOSH        CLOUDY    65  63  93 CALM      30.06S FOG
$$

WIZ032>034-041-042-053>061-050800-
SOUTHWEST WISCONSIN

CITY           SKY/WX    TMP DP  RH WIND       PRES   REMARKS
LA CROSSE      LGT RAIN  76  72  87 E5        30.01R
SPARTA         PTCLDY    70  67  91 CALM      30.03S
VIROQUA        CLOUDY    72  72 100 SE3       30.05R
BOSCOBEL       MOCLDY    74  72  93 CALM      30.02R FOG
PRAIRIE DU CHI LGT RAIN  73  71  92 E6        30.01S
PLATTEVILLE    MOCLDY    73  72  96 E8        30.03S
$$

WIZ056-057-062-063-064-067-068-050800-
SOUTH CENTRAL WISCONSIN

CITY           SKY/WX    TMP DP  RH WIND       PRES   REMARKS
REEDSBURG      MOCLDY    69  68  97 CALM      30.04S
BARABOO/DELLS  PTCLDY    69  65  89 SE5       30.04F FOG
LONE ROCK      PTCLDY    72  69  90 E8        30.03F
MINERAL POINT  CLEAR     72  72 100 SE7       30.04F FOG
MADISON        PTCLDY    68  65  90 S6        30.05S
MIDDLETON      MOCLDY    70  67  93 SE3       30.06S
WATERTOWN      PTCLDY    65  65 100 CALM      30.06S
MONROE         CLEAR     68  64  88 SE5       30.05F FOG
JANESVILLE     PTCLDY    68  64  88 CALM      30.05S FOG
$$

WIZ051-052-058>065-066-070>072-050800-
SOUTHEAST WISCONSIN

CITY           SKY/WX    TMP DP  RH WIND       PRES   REMARKS
MILWAUKEE      FOG       66  65  96 VRB3      30.06F VSB 1
WAUKESHA       FOG       63  63 100 CALM      30.08S VSB 3/4
MILWAUKEE/TIMM CLOUDY    64  63  94 S3        30.08R FOG
RACINE         PTCLDY    67  64  90 NE3       30.08S
BURLINGTON     PTCLDY    64  64  97 CALM      30.06S FOG
KENOSHA        PTCLDY    66  65  96 NE3       30.06F
FOND DU LAC    MOCLDY    64  64 100 S3        30.06F
SHEBOYGAN      FOG       64  64 100 SW3       30.06F VSB 1/4
WEST BEND      FOG       63  63 100 CALM      30.07S VSB 1/2
JUNEAU         CLOUDY    66  64  94 CALM      30.07F FOG
$$

LSZ147-162-050800-
LAKE SUPERIOR

STATION/POSITION TIME  TEMP    WIND        PRES    WAVE
                       AIR SEA DIR/SP/G            HT/PER
                 (UTC) (F)     (DEG/KT/KT) (MB)    (FT/S)
W MID LAKE BUOY  0650   63 57  130/  8/ 10 1016.0F   1/ 4
DEVILS ISLAND    0700   67     140/  5/  6 1015.3F
PORT WING        0640   59     160/  2/  2 1015.2S
SAXON HARBOR     0640   74     190/  5/ 10 1015.2S
$$

LMZ867-665-643>646-050800-
LAKE MICHIGAN

STATION/POSITION TIME  TEMP    WIND        PRES    WAVE
                       AIR SEA DIR/SP/G            HT/PER
                 (UTC) (F)     (DEG/KT/KT) (MB)    (FT/S)
CHAMBERS ISLAND  0600   66      40/  2/  3 1017.9S
S GREEN BAY BUOY 0700   66 67  300/  2/  2 1019.2
N MID LAKE BUOY  0650   68 67  130/  6/  6 1017.3R   1
NORTHPORT PIER   0700   67     280/  4/  5 1017.6S
SISTER BAY       0611   65        CALM       N/A
ALGOMA LAKESHORE 0614          320/  4/  5   N/A
KEWAUNEE LAKESHO 0700   64     280/  3/  3 1016.7F
SHEBOYGAN LAKESH 0700   62      CALM  /  1 1018.1F
PORT WASHINGTON  0600   61      CALM  /  2 1018.6F
ATWATER BUOY     0700   60 58   CALM  /  2 1019.6R
MILWAUKEE LAKESH 0710   63      30/  1/  2   N/A
S MID LAKE BUOY  0650   69 71  160/  2/  4 1017.5F   1
KENOSHA   LAKESH 0700   65      10/  3/  4 1017.6F
$$

TC  - TEMPERATURE IN CELSIUS
VSB - VISIBILITY IN STATUTE MILES
WCI - WIND CHILL INDEX
HX  - HEAT INDEX




USA.gov is the U.S. government's official web portal to all federal, state and local government web resources and services.